DW0364 Weather Reports


time (UTC)temp
C
wind
direction
speed
KPH
gust
KPH
rain 1hr
cm
rain 24hr
cm
rain mn
cm
humidity
%
barometer
mb
20260503185109 18 357 1.6 11.3 0.00 0.00 0.00 37 1017.5
20260503184604 18 320 3.2 8.0 0.00 0.00 0.00 39 1017.5
20260503184101 19 264 4.8 8.0 0.00 0.00 0.00 35 1017.7
20260503183557 18 305 1.6 3.2 0.00 0.00 0.00 38 1017.6
20260503183055 18 324 0.0 4.8 0.00 0.00 0.00 39 1018.1
20260503182553 17 306 0.0 3.2 0.00 0.00 0.00 38 1018.0
20260503182051 18 288 1.6 3.2 0.00 0.00 0.00 39 1018.0
20260503181548 18 265 3.2 3.2 0.00 0.00 0.00 38 1017.9
20260503181044 18 271 1.6 4.8 0.00 0.00 0.00 37 1017.8
20260503180541 17 264 4.8 8.0 0.00 0.00 0.00 39 1018.0
20260503180039 17 293 3.2 9.7 0.00 0.00 0.00 40 1018.1
20260503175536 17 249 4.8 8.0 0.00 0.00 0.00 39 1018.2
20260503175033 17 327 0.0 3.2 0.00 0.00 0.00 40 1018.0
20260503174530 18 285 4.8 8.0 0.00 0.00 0.00 40 1018.2
20260503174026 17 248 3.2 3.2 0.00 0.00 0.00 41 1018.5
20260503173521 17 308 1.6 3.2 0.00 0.00 0.00 42 1018.5
20260503173018 17 304 0.0 3.2 0.00 0.00 0.00 42 1018.6
20260503172516 17 266 3.2 8.0 0.00 0.00 0.00 42 1018.7
20260503172012 17 287 3.2 4.8 0.00 0.00 0.00 43 1018.9
20260503171509 17 281 0.0 1.6 0.00 0.00 0.00 42 1018.5
20260503171006 17 290 1.6 4.8 0.00 0.00 0.00 42 1018.9
20260503170503 17 333 1.6 4.8 0.00 0.00 0.00 43 1018.8
20260503150855 15 278 1.6 3.2 0.00 0.00 0.00 46 1019.8
20260503150351 15 299 1.6 3.2 0.00 0.00 0.00 46 1019.8
20260503140315 13 32 0.0 4.8 0.00 0.00 0.00 57 1019.6
20260503131245 11 12 3.2 8.0 0.00 0.00 0.00 60 1019.5
20260503130742 12 14 1.6 3.2 0.00 0.00 0.00 59 1019.6
20260503130240 12 101 1.6 8.0 0.00 0.00 0.00 58 1019.4
20260503120206 8 4 0.0 1.6 0.00 0.00 0.00 82 1019.1
20260503110633 3 334 0.0 0.0 0.00 0.00 0.00 99 1018.9
20260503110130 2 3 0.0 0.0 0.00 0.00 0.00 99 1018.7
20260503081440 4 3 0.0 0.0 0.00 0.00 0.00 95 1016.8
20260503080937 4 3 0.0 0.0 0.00 0.00 0.00 95 1016.8
20260503080434 4 3 0.0 0.0 0.00 0.00 0.00 96 1016.8
20260503072909 4 3 0.0 0.0 0.00 0.00 0.00 94 1016.4
20260503072402 4 3 0.0 0.0 0.00 0.00 0.00 94 1016.3
20260503071858 4 3 0.0 0.0 0.00 0.00 0.00 94 1016.3
20260503071355 4 3 0.0 0.0 0.00 0.00 0.00 94 1016.3
20260503070851 4 3 0.0 0.0 0.00 0.00 0.00 93 1016.1
20260503070349 4 3 0.0 0.0 0.00 0.00 0.00 92 1016.3
20260503060309 5 3 0.0 0.0 0.00 0.00 0.00 89 1015.9
20260503054755 5 3 0.0 0.0 0.00 0.00 0.00 89 1015.8
20260503054252 5 3 0.0 0.0 0.00 0.00 0.00 88 1015.9
20260503053749 5 3 0.0 0.0 0.00 0.00 0.00 87 1015.9
20260503053243 6 3 0.0 0.0 0.00 0.00 0.00 87 1016.1
20260503052738 6 3 0.0 0.0 0.00 0.00 0.00 86 1015.9
20260503052235 6 3 0.0 0.0 0.00 0.00 0.00 85 1015.8
20260503051730 6 3 0.0 0.0 0.00 0.00 0.00 84 1015.8
20260503051228 6 3 0.0 0.0 0.00 0.00 0.00 83 1015.9
20260503050725 6 3 0.0 0.0 0.00 0.00 0.00 83 1015.5
20260503050221 6 3 0.0 0.0 0.00 0.00 0.00 83 1015.6
20260503045719 7 3 0.0 0.0 0.00 0.00 0.00 82 1015.6
20260503045216 7 3 0.0 0.0 0.00 0.00 0.00 81 1015.7
20260503044713 7 3 0.0 0.0 0.00 0.00 0.00 80 1015.6
20260503044210 7 3 0.0 1.6 0.00 0.00 0.00 79 1015.3
20260503043707 7 3 0.0 0.0 0.00 0.00 0.00 78 1015.5
20260503043205 7 3 0.0 1.6 0.00 0.00 0.00 79 1015.3
20260503042700 7 2 0.0 0.0 0.00 0.00 0.00 79 1015.5
20260503042156 7 2 0.0 0.0 0.00 0.00 0.00 79 1015.3
20260503041653 7 2 0.0 0.0 0.00 0.00 0.00 78 1015.4
20260503041150 7 2 0.0 0.0 0.00 0.00 0.00 78 1015.0
20260503040648 8 2 0.0 0.0 0.00 0.00 0.00 77 1015.1
20260503040145 8 2 0.0 0.0 0.00 0.00 0.00 76 1015.2
20260503035642 8 2 0.0 0.0 0.00 0.00 0.00 74 1015.1
20260503035139 8 2 0.0 0.0 0.00 0.00 0.00 74 1015.1
20260503034637 8 2 0.0 0.0 0.00 0.00 0.00 72 1015.0
20260503034134 8 2 0.0 1.6 0.00 0.00 0.00 72 1015.1
20260503033631 9 1 0.0 1.6 0.00 0.00 0.00 70 1015.2
20260503033128 9 1 0.0 0.0 0.00 0.00 0.00 70 1015.1
20260503032627 9 1 0.0 1.6 0.00 0.00 0.00 70 1015.0
20260503032125 10 2 0.0 0.0 0.00 0.00 0.00 70 1015.0
20260503031622 10 1 0.0 0.0 0.00 0.00 0.00 69 1015.0
20260503031119 10 1 0.0 1.6 0.00 0.00 0.00 70 1014.7
20260503030615 10 0 0.0 0.0 0.00 0.00 0.00 70 1014.8
20260503030112 11 0 0.0 0.0 0.00 0.00 0.00 68 1014.8
20260503025609 11 0 0.0 0.0 0.00 0.00 0.00 68 1014.8
20260503025107 11 335 0.0 1.6 0.00 0.00 0.00 62 1014.8
20260503024603 11 341 1.6 1.6 0.00 0.00 0.00 63 1014.7
20260503024100 11 302 0.0 0.0 0.00 0.00 0.00 67 1014.6
20260503023557 11 303 0.0 0.0 0.00 0.00 0.00 68 1014.5
20260503023054 11 331 0.0 1.6 0.00 0.00 0.00 67 1014.5
20260503022550 10 318 0.0 1.6 0.00 0.00 0.00 67 1014.6
20260503022045 11 349 0.0 0.0 0.00 0.00 0.00 71 1014.5
20260503021542 11 349 0.0 0.0 0.00 0.00 0.00 71 1014.4
20260503021039 11 349 0.0 0.0 0.00 0.00 0.00 69 1014.4
20260503020536 11 353 0.0 1.6 0.00 0.00 0.00 66 1014.3
20260503020033 11 341 0.0 1.6 0.00 0.00 0.00 66 1014.2
20260503015529 11 342 0.0 0.0 0.00 0.00 0.00 71 1014.2
20260503015027 12 342 0.0 0.0 0.00 0.00 0.00 70 1014.1
20260503014522 12 342 0.0 0.0 0.00 0.00 0.00 67 1014.0
20260503014021 12 342 0.0 0.0 0.00 0.00 0.00 68 1013.8
20260503013518 12 1 0.0 1.6 0.00 0.00 0.00 62 1013.8
20260503013015 12 356 0.0 1.6 0.00 0.00 0.00 66 1013.8
20260503012513 12 345 0.0 1.6 0.00 0.00 0.00 64 1013.7
20260503012009 13 346 0.0 0.0 0.00 0.00 0.00 69 1013.5
20260503011506 13 325 0.0 0.0 0.00 0.00 0.00 66 1013.4
20260503011003 13 358 1.6 3.2 0.00 0.00 0.00 60 1013.3
20260503010459 13 347 0.0 1.6 0.00 0.00 0.00 69 1013.3
20260503005957 13 331 0.0 1.6 0.00 0.00 0.00 72 1013.3
20260503005454 12 357 0.0 1.6 0.00 0.00 0.00 73 1013.0
20260503004950 12 338 0.0 3.2 0.00 0.00 0.00 78 1013.1
20260503004447 12 321 0.0 1.6 0.00 0.00 0.00 76 1013.2
20260503003945 12 336 0.0 0.0 0.00 0.00 0.00 78 1013.0
20260503003441 12 336 0.0 0.0 0.00 0.00 0.00 77 1013.0
20260503002938 12 337 0.0 1.6 0.00 0.00 0.00 77 1012.8
20260503002436 12 336 0.0 1.6 0.00 0.00 0.00 75 1012.8
20260503001932 12 337 1.6 1.6 0.00 0.00 0.00 76 1012.7
20260503001429 13 334 1.6 1.6 0.00 0.00 0.00 76 1012.4
20260503000926 13 335 0.0 0.0 0.00 0.00 0.00 71 1012.4
20260503000423 13 314 0.0 1.6 0.00 0.00 0.00 70 1012.3
20260502235920 13 314 0.0 1.6 0.00 0.00 0.00 70 1012.2
20260502235417 13 314 0.0 1.6 0.00 0.00 0.00 70 1012.0
20260502234914 13 313 0.0 0.0 0.00 0.00 0.00 68 1012.0
20260502234411 13 313 0.0 0.0 0.00 0.00 0.00 68 1011.9
20260502233908 14 313 0.0 0.0 0.00 0.00 0.00 68 1011.7
20260502233403 14 313 0.0 0.0 0.00 0.00 0.00 67 1011.6
20260502232901 14 313 0.0 0.0 0.00 0.00 0.00 67 1011.5
20260502232357 15 313 0.0 1.6 0.00 0.00 0.00 65 1011.5
20260502231854 15 289 0.0 0.0 0.00 0.00 0.00 62 1011.4
20260502231352 15 289 0.0 0.0 0.00 0.00 0.00 62 1011.5
20260502230850 15 289 0.0 0.0 0.00 0.00 0.00 62 1011.2
20260502230348 15 287 0.0 0.0 0.00 0.00 0.00 58 1011.2
20260502225844 15 316 0.0 0.0 0.00 0.00 0.00 59 1011.1
20260502225340 15 315 0.0 1.6 0.00 0.00 0.00 57 1011.2
20260502224838 15 301 0.0 1.6 0.00 0.00 0.00 56 1011.1
20260502224334 15 332 0.0 1.6 0.00 0.00 0.00 55 1011.2
20260502223831 15 81 0.0 3.2 0.00 0.00 0.00 55 1011.1
20260502223329 16 273 0.0 1.6 0.00 0.00 0.00 55 1011.2
20260502222827 16 322 0.0 0.0 0.00 0.00 0.00 56 1011.2
20260502222324 16 311 0.0 1.6 0.00 0.00 0.00 55 1011.0
20260502221820 16 328 0.0 0.0 0.00 0.00 0.00 54 1011.0
20260502221316 16 268 1.6 1.6 0.00 0.00 0.00 53 1010.9
20260502220814 16 252 3.2 3.2 0.00 0.00 0.00 54 1011.0
20260502220309 16 311 0.0 1.6 0.00 0.00 0.00 57 1010.7
20260502215806 16 288 0.0 1.6 0.00 0.00 0.00 54 1010.8
20260502215305 16 312 0.0 1.6 0.00 0.00 0.00 53 1010.8
20260502214800 16 44 1.6 3.2 0.00 0.00 0.00 51 1010.6
20260502214256 16 310 0.0 1.6 0.00 0.00 0.00 52 1010.6
20260502213754 16 52 1.6 3.2 0.00 0.00 0.00 49 1010.7
20260502213251 16 319 0.0 0.0 0.00 0.00 0.00 53 1010.7
20260502212750 16 309 0.0 1.6 0.00 0.00 0.00 51 1010.7
20260502212248 16 298 1.6 1.6 0.00 0.00 0.00 51 1010.6
20260502211743 16 64 1.6 1.6 0.00 0.00 0.00 50 1010.8
20260502211240 16 345 0.0 1.6 0.00 0.00 0.00 50 1010.8
20260502210737 16 310 0.0 1.6 0.00 0.00 0.00 50 1010.8
20260502210235 16 345 0.0 3.2 0.00 0.00 0.00 49 1011.0
20260502205732 16 340 0.0 1.6 0.00 0.00 0.00 51 1010.8
20260502205228 16 301 0.0 1.6 0.00 0.00 0.00 50 1010.6
20260502204726 16 330 0.0 1.6 0.00 0.00 0.00 49 1010.9
20260502204223 16 357 0.0 0.0 0.00 0.00 0.00 50 1010.9
20260502203721 16 339 3.2 3.2 0.00 0.00 0.00 47 1010.8
20260502203218 16 351 1.6 1.6 0.00 0.00 0.00 47 1010.8
20260502202712 16 70 1.6 3.2 0.00 0.00 0.00 47 1010.7
20260502202210 16 305 0.0 1.6 0.00 0.00 0.00 49 1010.8
20260502201707 16 314 1.6 11.3 0.00 0.00 0.00 48 1010.8
20260502193939 16 268 1.6 3.2 0.00 0.00 0.00 50 1011.7
20260502193437 16 268 1.6 3.2 0.00 0.00 0.00 50 1011.7
20260502192932 16 357 0.0 3.2 0.00 0.00 0.00 48 1011.7
20260502192429 15 332 0.0 1.6 0.00 0.00 0.00 54 1011.7
20260502191925 16 44 1.6 3.2 0.00 0.00 0.00 49 1011.5
20260502191423 15 249 3.2 3.2 0.00 0.00 0.00 49 1011.8
20260502190920 15 24 1.6 3.2 0.00 0.00 0.00 51 1011.7
20260502190412 16 353 0.0 3.2 0.00 0.00 0.00 48 1012.1
20260502185908 16 334 0.0 1.6 0.00 0.00 0.00 50 1012.0